,,PA_Meas_PMT16A,,PR_Meas_QMR101_102,,RH_Meas_QMH101,,SR_Meas_QMS101,,TA_Meas_QMH101,,GenWind,,GenWind,
time,status,PA,status,PR,status,RH,status,SR,status,TA,status,DirAvg,status,SpdAvg,
2010-11-24, 00:00:04,VALID,917.056,VALID,0,VALID,95.2317,VALID,0,VALID,19.2348,VALID,9,VALID,1.01172,
2010-11-24, 00:01:04,VALID,917.043,VALID,0,VALID,95.4833,VALID,0.107441,VALID,19.2543,VALID,9,VALID,1.15039,
2010-11-24, 00:02:04,VALID,917.071,VALID,0,VALID,95.468,VALID,0.107441,VALID,19.2153,VALID,353,VALID,1.15586,
2010-11-24, 00:03:04,VALID,917.068,VALID,0,VALID,95.3613,VALID,0,VALID,19.2168,VALID,20,VALID,1.03867,
2010-11-24, 00:04:04,VALID,917.049,VALID,0,VALID,95.4299,VALID,0,VALID,19.1568,VALID,20,VALID,0.879687,
2010-11-24, 00:05:04,VALID,917.061,VALID,0,VALID,95.4604,VALID,0.107441,VALID,19.1568,VALID,20,VALID,0.547266,
2010-11-24, 00:06:04,VALID,917.041,VALID,0,VALID,95.59,VALID,0.107441,VALID,19.1583,VALID,20,VALID,0,
2010-11-24, 00:07:04,VALID,917.063,VALID,0,VALID,95.773,VALID,0,VALID,19.1568,VALID,20,VALID,0.123438,
2010-11-24, 00:08:04,VALID,917.05,VALID,0,VALID,95.8111,VALID,0.107441,VALID,19.1973,VALID,329,VALID,0.771094,
2010-11-24, 00:09:04,VALID,917.042,VALID,0,VALID,95.7349,VALID,0,VALID,19.1568,VALID,19,VALID,1.33281,
2010-11-24, 00:10:04,VALID,917.023,VALID,0,VALID,95.7654,VALID,0.107441,VALID,19.1958,VALID,344,VALID,1.32305,
2010-11-24, 00:11:04,VALID,917.015,VALID,0,VALID,95.6053,VALID,0.107441,VALID,19.2348,VALID,344,VALID,0.376953,
2010-11-24, 00:12:04,VALID,917.032,VALID,0,VALID,95.4757,VALID,0,VALID,19.2543,VALID,344,VALID,0.790625,
2010-11-24, 00:13:04,VALID,917.001,VALID,0,VALID,95.2698,VALID,0,VALID,19.2348,VALID,344,VALID,0,
2010-11-24, 00:14:04,VALID,916.996,VALID,0,VALID,95.0945,VALID,0,VALID,19.2153,VALID,344,VALID,0,
2010-11-24, 00:15:04,VALID,916.987,VALID,0,VALID,95.0411,VALID,0,VALID,19.1958,VALID,344,VALID,1.0707,
2010-11-24, 00:16:04,VALID,916.934,VALID,0,VALID,94.9954,VALID,0,VALID,19.1778,VALID,345,VALID,1.28828,
2010-11-24, 00:17:04,VALID,916.969,VALID,0,VALID,94.8963,VALID,0,VALID,19.1583,VALID,20,VALID,0.983203,
2010-11-24, 00:18:04,VALID,916.929,VALID,0,VALID,94.9878,VALID,0,VALID,19.1373,VALID,20,VALID,0.935938,
2010-11-24, 00:19:04,VALID,916.923,VALID,0,VALID,95.1936,VALID,0,VALID,19.1583,VALID,20,VALID,1.29102,
2010-11-24, 00:20:04,VALID,916.889,VALID,0,VALID,95.1097,VALID,0,VALID,19.1778,VALID,20,VALID,1.25078,
2010-11-24, 00:21:04,VALID,916.865,VALID,0,VALID,94.9878,VALID,0,VALID,19.1973,VALID,20,VALID,1.14219,
2010-11-24, 00:22:04,VALID,916.866,VALID,0,VALID,94.9115,VALID,0,VALID,19.2363,VALID,20,VALID,1.12344,
2010-11-24, 00:23:04,VALID,916.821,VALID,0,VALID,94.7362,VALID,0,VALID,19.2572,VALID,20,VALID,1.31797,
2010-11-24, 00:24:04,VALID,916.806,VALID,0,VALID,94.6066,VALID,0,VALID,19.2363,VALID,20,VALID,1.2918,
2010-11-24, 00:25:04,VALID,916.792,VALID,0,VALID,94.4465,VALID,0,VALID,19.2363,VALID,20,VALID,1.38398,
2010-11-24, 00:26:04,VALID,916.772,VALID,0,VALID,94.3931,VALID,0,VALID,19.2363,VALID,20,VALID,1.2625,
2010-11-24, 00:27:04,VALID,916.805,VALID,0,VALID,94.294,VALID,0,VALID,19.2363,VALID,20,VALID,1.27617,
2010-11-24, 00:28:04,VALID,916.775,VALID,0,VALID,94.3779,VALID,0,VALID,19.2168,VALID,20,VALID,1.45117,
2010-11-24, 00:29:04,VALID,916.756,VALID,0,VALID,94.2864,VALID,0,VALID,19.2363,VALID,5,VALID,0.846094,
2010-11-24, 00:30:04,VALID,916.769,VALID,0,VALID,94.1721,VALID,0,VALID,19.2377,VALID,5,VALID,1.18203,
2010-11-24, 00:31:04,VALID,916.77,VALID,0,VALID,94.3169,VALID,0,VALID,19.1973,VALID,5,VALID,1.41797,
2010-11-24, 00:32:04,VALID,916.769,VALID,0,VALID,94.4922,VALID,0,VALID,19.2377,VALID,5,VALID,1.10547,
2010-11-24, 00:33:04,VALID,916.783,VALID,0,VALID,94.538,VALID,0,VALID,19.1973,VALID,5,VALID,1.03828,
2010-11-24, 00:34:04,VALID,916.804,VALID,0,VALID,94.5837,VALID,0,VALID,19.2168,VALID,5,VALID,0.943359,
2010-11-24, 00:35:04,VALID,916.8,VALID,0,VALID,94.5304,VALID,0,VALID,19.1778,VALID,5,VALID,1.24102,
2010-11-24, 00:36:04,VALID,916.77,VALID,0,VALID,94.5685,VALID,0,VALID,19.1583,VALID,5,VALID,0.967578,
2010-11-24, 00:37:04,VALID,916.762,VALID,0,VALID,94.6905,VALID,0,VALID,19.1583,VALID,5,VALID,1.48555,
2010-11-24, 00:38:04,VALID,916.766,VALID,0,VALID,94.7209,VALID,0,VALID,19.1583,VALID,5,VALID,1.0625,
2010-11-24, 00:39:04,VALID,916.768,VALID,0,VALID,94.7209,VALID,0,VALID,19.1583,VALID,5,VALID,0.692969,
2010-11-24, 00:40:04,VALID,916.752,VALID,0,VALID,94.7667,VALID,0,VALID,19.1583,VALID,5,VALID,0.675,
2010-11-24, 00:41:04,VALID,916.753,VALID,0,VALID,94.8277,VALID,0,VALID,19.1373,VALID,351,VALID,0.747656,
2010-11-24, 00:42:04,VALID,916.727,VALID,0,VALID,94.7972,VALID,0,VALID,19.1778,VALID,351,VALID,0.855859,
2010-11-24, 00:43:04,VALID,916.727,VALID,0,VALID,94.6981,VALID,0,VALID,19.1778,VALID,351,VALID,0.984375,
2010-11-24, 00:44:04,VALID,916.715,VALID,0,VALID,94.6447,VALID,0.107441,VALID,19.1763,VALID,351,VALID,0.966797,
2010-11-24, 00:45:04,VALID,916.714,VALID,0,VALID,94.5685,VALID,0.107441,VALID,19.1763,VALID,351,VALID,0.883594,
2010-11-24, 00:46:04,VALID,916.659,VALID,0,VALID,94.4846,VALID,0.107441,VALID,19.2153,VALID,351,VALID,0.625781,
2010-11-24, 00:47:04,VALID,916.646,VALID,0,VALID,94.3703,VALID,0.107441,VALID,19.1958,VALID,351,VALID,0.829687,
2010-11-24, 00:48:04,VALID,916.613,VALID,0,VALID,94.5151,VALID,0.107441,VALID,19.1763,VALID,351,VALID,0.973437,
2010-11-24, 00:49:04,VALID,916.627,VALID,0,VALID,94.3626,VALID,0.107441,VALID,19.1373,VALID,351,VALID,0.536328,
2010-11-24, 00:50:04,VALID,916.587,VALID,0,VALID,94.5456,VALID,0.107441,VALID,19.1178,VALID,351,VALID,0,
2010-11-24, 00:51:04,VALID,916.611,VALID,0,VALID,94.7667,VALID,0,VALID,19.0983,VALID,351,VALID,0,
2010-11-24, 00:52:04,VALID,916.587,VALID,0,VALID,94.9344,VALID,0,VALID,19.1193,VALID,351,VALID,0.406641,
2010-11-24, 00:53:04,VALID,916.578,VALID,0,VALID,94.881,VALID,0.107441,VALID,19.0788,VALID,351,VALID,0.979688,
2010-11-24, 00:54:04,VALID,916.602,VALID,0,VALID,94.7743,VALID,0.107441,VALID,19.0788,VALID,351,VALID,1.1082,
2010-11-24, 00:55:04,VALID,916.564,VALID,0,VALID,94.6523,VALID,0,VALID,19.0998,VALID,351,VALID,1.26406,
2010-11-24, 00:56:04,VALID,916.552,VALID,0,VALID,94.5151,VALID,0.107441,VALID,19.0983,VALID,351,VALID,1.10391,
2010-11-24, 00:57:04,VALID,916.543,VALID,0,VALID,94.3017,VALID,0.107441,VALID,19.1178,VALID,13,VALID,1.06758,
2010-11-24, 00:58:04,VALID,916.533,VALID,0,VALID,93.9052,VALID,0,VALID,19.1178,VALID,13,VALID,0.972656,
2010-11-24, 00:59:04,VALID,916.528,VALID,0,VALID,93.6613,VALID,0,VALID,19.0788,VALID,13,VALID,0.602344,
2010-11-24, 01:00:04,VALID,916.477,VALID,0,VALID,93.7528,VALID,0,VALID,19.1012,VALID,13,VALID,0.668359,
2010-11-24, 01:01:04,VALID,916.452,VALID,0,VALID,93.9586,VALID,0,VALID,19.0817,VALID,13,VALID,0.950781,
2010-11-24, 01:02:04,VALID,916.449,VALID,0,VALID,93.9967,VALID,0,VALID,19.0803,VALID,13,VALID,0.721875,
2010-11-24, 01:03:04,VALID,916.434,VALID,0,VALID,93.8443,VALID,0,VALID,19.0803,VALID,13,VALID,0.610156,
2010-11-24, 01:04:04,VALID,916.405,VALID,0,VALID,93.8976,VALID,0,VALID,19.0608,VALID,13,VALID,1.30625,
2010-11-24, 01:05:04,VALID,916.375,VALID,0,VALID,93.7833,VALID,0,VALID,19.0817,VALID,13,VALID,1.22891,
2010-11-24, 01:06:04,VALID,916.401,VALID,0,VALID,93.6079,VALID,0,VALID,19.0218,VALID,13,VALID,0.805469,
2010-11-24, 01:07:04,VALID,916.407,VALID,0,VALID,93.8824,VALID,0,VALID,19.0218,VALID,13,VALID,0.682813,
2010-11-24, 01:08:04,VALID,916.394,VALID,0,VALID,94.1263,VALID,0,VALID,19.0023,VALID,13,VALID,0.640234,
2010-11-24, 01:09:04,VALID,916.394,VALID,0,VALID,94.1797,VALID,0,VALID,19.0427,VALID,13,VALID,0.717578,
2010-11-24, 01:10:04,VALID,916.381,VALID,0,VALID,94.0196,VALID,0,VALID,19.0413,VALID,13,VALID,0.971484,
2010-11-24, 01:11:04,VALID,916.346,VALID,0,VALID,93.7909,VALID,0,VALID,19.0232,VALID,13,VALID,0.519531,
2010-11-24, 01:12:04,VALID,916.339,VALID,0,VALID,93.7985,VALID,0,VALID,19.0218,VALID,13,VALID,0,
2010-11-24, 01:13:04,VALID,916.333,VALID,0,VALID,93.8595,VALID,0,VALID,19.0232,VALID,13,VALID,0,
2010-11-24, 01:14:04,VALID,916.337,VALID,0,VALID,93.8824,VALID,0,VALID,19.0413,VALID,13,VALID,0,
2010-11-24, 01:15:04,VALID,916.31,VALID,0,VALID,93.8214,VALID,0,VALID,19.0413,VALID,13,VALID,0,
2010-11-24, 01:16:04,VALID,916.286,VALID,0,VALID,93.5469,VALID,0,VALID,19.0413,VALID,13,VALID,1.00781,
2010-11-24, 01:17:04,VALID,916.305,VALID,0,VALID,93.6155,VALID,0,VALID,19.0413,VALID,13,VALID,1.28594,
2010-11-24, 01:18:04,VALID,916.296,VALID,0,VALID,93.4478,VALID,0,VALID,19.0788,VALID,13,VALID,0.991016,
2010-11-24, 01:19:04,VALID,916.303,VALID,0,VALID,93.2268,VALID,0,VALID,19.0998,VALID,13,VALID,0.7125,
2010-11-24, 01:20:04,VALID,916.275,VALID,0,VALID,93.1658,VALID,0,VALID,19.0983,VALID,13,VALID,0.669531,
2010-11-24, 01:21:04,VALID,916.266,VALID,0,VALID,93.1429,VALID,0,VALID,19.0998,VALID,13,VALID,0.605469,
2010-11-24, 01:22:04,VALID,916.279,VALID,0,VALID,93.1276,VALID,0,VALID,19.0803,VALID,13,VALID,0,
2010-11-24, 01:23:04,VALID,916.254,VALID,0,VALID,93.2191,VALID,0,VALID,19.0608,VALID,13,VALID,0,
2010-11-24, 01:24:04,VALID,916.276,VALID,0,VALID,93.303,VALID,0,VALID,19.0413,VALID,13,VALID,0,
2010-11-24, 01:25:04,VALID,916.221,VALID,0,VALID,93.1886,VALID,0,VALID,19.0218,VALID,13,VALID,0,
2010-11-24, 01:26:04,VALID,916.201,VALID,0,VALID,93.1886,VALID,0,VALID,19.0023,VALID,13,VALID,0,
2010-11-24, 01:27:04,VALID,916.175,VALID,0,VALID,93.2191,VALID,0,VALID,18.9633,VALID,13,VALID,0,
2010-11-24, 01:28:04,VALID,916.175,VALID,0,VALID,93.3259,VALID,0,VALID,18.9828,VALID,13,VALID,0,
2010-11-24, 01:29:04,VALID,916.173,VALID,0,VALID,93.3106,VALID,0,VALID,18.9438,VALID,13,VALID,0,
2010-11-24, 01:30:04,VALID,916.123,VALID,0,VALID,92.9294,VALID,0,VALID,18.8644,VALID,13,VALID,0,
2010-11-24, 01:31:04,VALID,916.149,VALID,0,VALID,93.1429,VALID,0,VALID,18.8073,VALID,13,VALID,0,
2010-11-24, 01:32:04,VALID,916.118,VALID,0,VALID,93.7985,VALID,0,VALID,18.7669,VALID,13,VALID,0,
2010-11-24, 01:33:04,VALID,916.085,VALID,0,VALID,94.0425,VALID,0,VALID,18.7488,VALID,13,VALID,0.669531,
2010-11-24, 01:34:04,VALID,916.069,VALID,0,VALID,94.1416,VALID,0,VALID,18.7084,VALID,13,VALID,0.815625,
2010-11-24, 01:35:04,VALID,916.085,VALID,0,VALID,94.2178,VALID,0,VALID,18.7293,VALID,13,VALID,0.698828,
2010-11-24, 01:36:04,VALID,916.066,VALID,0,VALID,94.233,VALID,0,VALID,18.7669,VALID,13,VALID,0.441797,
2010-11-24, 01:37:04,VALID,916.029,VALID,0,VALID,94.2178,VALID,0,VALID,18.7488,VALID,13,VALID,0.107031,
2010-11-24, 01:38:04,VALID,916.025,VALID,0,VALID,93.9434,VALID,0,VALID,18.7293,VALID,13,VALID,0,
2010-11-24, 01:39:04,VALID,915.983,VALID,0,VALID,94.0348,VALID,0,VALID,18.6889,VALID,13,VALID,0.00390625,
2010-11-24, 01:40:04,VALID,916.009,VALID,0,VALID,94.4999,VALID,0,VALID,18.7084,VALID,13,VALID,0.559766,
2010-11-24, 01:41:04,VALID,916.02,VALID,0,VALID,94.5304,VALID,0,VALID,18.7488,VALID,13,VALID,0,
2010-11-24, 01:42:04,VALID,916.016,VALID,0,VALID,94.6447,VALID,0,VALID,18.7683,VALID,13,VALID,0,
2010-11-24, 01:43:04,VALID,916.045,VALID,0,VALID,94.7819,VALID,0,VALID,18.7683,VALID,13,VALID,0,
2010-11-24, 01:44:04,VALID,916.048,VALID,0,VALID,94.9649,VALID,0,VALID,18.7488,VALID,13,VALID,0,
2010-11-24, 01:45:04,VALID,916.095,VALID,0,VALID,95.003,VALID,0,VALID,18.7098,VALID,3,VALID,0,
2010-11-24, 01:46:04,VALID,916.048,VALID,0,VALID,94.881,VALID,0,VALID,18.6903,VALID,3,VALID,0.951563,
2010-11-24, 01:47:04,VALID,916.07,VALID,0,VALID,94.7591,VALID,0,VALID,18.6708,VALID,3,VALID,0.964844,
2010-11-24, 01:48:04,VALID,916.108,VALID,0,VALID,94.538,VALID,0,VALID,18.6708,VALID,3,VALID,0.385156,
2010-11-24, 01:49:04,VALID,916.116,VALID,0,VALID,94.7667,VALID,0,VALID,18.6903,VALID,3,VALID,0.523438,
2010-11-24, 01:50:04,VALID,916.093,VALID,0,VALID,95.125,VALID,0,VALID,18.7293,VALID,3,VALID,0.090625,
2010-11-24, 01:51:04,VALID,916.095,VALID,0,VALID,95.247,VALID,0,VALID,18.7488,VALID,3,VALID,0,
2010-11-24, 01:52:04,VALID,916.082,VALID,0,VALID,95.3613,VALID,0,VALID,18.7683,VALID,3,VALID,0,
2010-11-24, 01:53:04,VALID,916.063,VALID,0,VALID,95.3613,VALID,0,VALID,18.7488,VALID,3,VALID,0,
2010-11-24, 01:54:04,VALID,916.045,VALID,0,VALID,95.1174,VALID,0,VALID,18.7098,VALID,3,VALID,0,
2010-11-24, 01:55:04,VALID,916.062,VALID,0,VALID,94.6905,VALID,0,VALID,18.6319,VALID,3,VALID,0,
2010-11-24, 01:56:04,VALID,916.085,VALID,0,VALID,94.6981,VALID,0,VALID,18.5929,VALID,3,VALID,0,
2010-11-24, 01:57:04,VALID,916.06,VALID,0,VALID,94.7896,VALID,0,VALID,18.5734,VALID,3,VALID,0,
2010-11-24, 01:58:04,VALID,916.079,VALID,0,VALID,94.9801,VALID,0,VALID,18.5539,VALID,3,VALID,0,
2010-11-24, 01:59:04,VALID,916.103,VALID,0,VALID,95.1707,VALID,0,VALID,18.5344,VALID,3,VALID,0,
2010-11-24, 02:00:04,VALID,916.086,VALID,0,VALID,95.4071,VALID,0,VALID,18.5539,VALID,3,VALID,0.605469,
2010-11-24, 02:01:04,VALID,916.088,VALID,0,VALID,95.3461,VALID,0,VALID,18.5553,VALID,3,VALID,0.819141,
2010-11-24, 02:02:04,VALID,916.079,VALID,0,VALID,95.3537,VALID,0,VALID,18.5149,VALID,3,VALID,1.06094,
2010-11-24, 02:03:04,VALID,916.103,VALID,0,VALID,95.2775,VALID,0,VALID,18.4954,VALID,3,VALID,0.184375,
2010-11-24, 02:04:04,VALID,916.071,VALID,0,VALID,95.529,VALID,0,VALID,18.4954,VALID,355,VALID,0.484375,
2010-11-24, 02:05:04,VALID,916.025,VALID,0,VALID,95.6586,VALID,0,VALID,18.5553,VALID,352,VALID,0.0433594,
2010-11-24, 02:06:04,VALID,915.982,VALID,0,VALID,95.7577,VALID,0,VALID,18.5734,VALID,352,VALID,0.334766,
2010-11-24, 02:07:04,VALID,915.959,VALID,0,VALID,95.7958,VALID,0,VALID,18.6124,VALID,352,VALID,0.475,
2010-11-24, 02:08:04,VALID,915.936,VALID,0,VALID,95.8873,VALID,0,VALID,18.6513,VALID,352,VALID,0.749219,
2010-11-24, 02:09:04,VALID,915.927,VALID,0,VALID,95.9102,VALID,0,VALID,18.6513,VALID,352,VALID,0.00195313,
2010-11-24, 02:10:04,VALID,915.905,VALID,0,VALID,95.9788,VALID,0,VALID,18.6708,VALID,352,VALID,0.206641,
2010-11-24, 02:11:04,VALID,915.9,VALID,0,VALID,96.0169,VALID,0,VALID,18.6513,VALID,352,VALID,0,
2010-11-24, 02:12:04,VALID,915.911,VALID,0,VALID,96.0398,VALID,0,VALID,18.6513,VALID,352,VALID,0,
2010-11-24, 02:13:04,VALID,915.94,VALID,0,VALID,96.0779,VALID,0,VALID,18.6513,VALID,352,VALID,0.574609,
2010-11-24, 02:14:04,VALID,915.946,VALID,0,VALID,96.1236,VALID,0,VALID,18.6319,VALID,352,VALID,0.795703,
2010-11-24, 02:15:04,VALID,915.948,VALID,0,VALID,96.1999,VALID,0,VALID,18.6513,VALID,352,VALID,0.539844,
2010-11-24, 02:16:04,VALID,915.956,VALID,0,VALID,96.2304,VALID,0,VALID,18.6304,VALID,352,VALID,0.369141,
2010-11-24, 02:17:04,VALID,915.957,VALID,0,VALID,96.3295,VALID,0,VALID,18.6694,VALID,352,VALID,0.125,
2010-11-24, 02:18:04,VALID,915.934,VALID,0,VALID,96.36,VALID,0,VALID,18.7098,VALID,352,VALID,0.0539063,
2010-11-24, 02:19:04,VALID,915.94,VALID,0,VALID,96.4133,VALID,0,VALID,18.6889,VALID,352,VALID,0.0585938,
2010-11-24, 02:20:04,VALID,915.913,VALID,0,VALID,96.4667,VALID,0,VALID,18.7488,VALID,352,VALID,0.148438,
2010-11-24, 02:21:04,VALID,915.931,VALID,0,VALID,96.4591,VALID,0,VALID,18.7279,VALID,352,VALID,0.624609,
2010-11-24, 02:22:04,VALID,915.915,VALID,0,VALID,96.4362,VALID,0,VALID,18.7488,VALID,352,VALID,0.385547,
2010-11-24, 02:23:04,VALID,915.916,VALID,0,VALID,96.4362,VALID,0,VALID,18.7279,VALID,352,VALID,0,
2010-11-24, 02:24:04,VALID,915.909,VALID,0,VALID,96.4362,VALID,0,VALID,18.7488,VALID,352,VALID,0,
2010-11-24, 02:25:04,VALID,915.898,VALID,0,VALID,96.4057,VALID,0,VALID,18.7293,VALID,352,VALID,0,
2010-11-24, 02:26:04,VALID,915.876,VALID,0,VALID,96.3066,VALID,0,VALID,18.7098,VALID,352,VALID,0,
2010-11-24, 02:27:04,VALID,915.895,VALID,0,VALID,96.2228,VALID,0,VALID,18.6903,VALID,352,VALID,0.194531,
2010-11-24, 02:28:04,VALID,915.875,VALID,0,VALID,96.0474,VALID,0,VALID,18.7098,VALID,352,VALID,0.651563,
2010-11-24, 02:29:04,VALID,915.876,VALID,0,VALID,95.8568,VALID,0,VALID,18.7293,VALID,352,VALID,0.765625,
2010-11-24, 02:30:04,VALID,915.865,VALID,0,VALID,95.712,VALID,0,VALID,18.7279,VALID,352,VALID,0.64375,
2010-11-24, 02:31:04,VALID,915.861,VALID,0,VALID,95.5443,VALID,0,VALID,18.7669,VALID,352,VALID,0.689453,
2010-11-24, 02:32:04,VALID,915.84,VALID,0,VALID,95.6053,VALID,0,VALID,18.8449,VALID,352,VALID,0.455078,
2010-11-24, 02:33:04,VALID,915.807,VALID,0,VALID,95.6434,VALID,0,VALID,18.8644,VALID,352,VALID,0,
2010-11-24, 02:34:04,VALID,915.789,VALID,0,VALID,95.6053,VALID,0,VALID,18.8658,VALID,352,VALID,0.309375,
2010-11-24, 02:35:04,VALID,915.786,VALID,0,VALID,95.3842,VALID,0,VALID,18.8463,VALID,352,VALID,1.25117,
2010-11-24, 02:36:04,VALID,915.746,VALID,0,VALID,95.2088,VALID,0,VALID,18.8853,VALID,352,VALID,1.11563,
2010-11-24, 02:37:04,VALID,915.723,VALID,0,VALID,94.7591,VALID,0,VALID,18.8839,VALID,352,VALID,0.998047,
2010-11-24, 02:38:04,VALID,915.712,VALID,0,VALID,94.477,VALID,0,VALID,18.9424,VALID,352,VALID,1.28398,
2010-11-24, 02:39:04,VALID,915.73,VALID,0,VALID,94.1797,VALID,0,VALID,18.9438,VALID,352,VALID,1.69414,
2010-11-24, 02:40:04,VALID,915.756,VALID,0,VALID,93.9434,VALID,0,VALID,18.9814,VALID,352,VALID,1.22852,
2010-11-24, 02:41:04,VALID,915.726,VALID,0,VALID,93.6689,VALID,0,VALID,18.9814,VALID,352,VALID,1.12695,
2010-11-24, 02:42:04,VALID,915.736,VALID,0,VALID,93.5164,VALID,0,VALID,19.0008,VALID,352,VALID,0.809375,
2010-11-24, 02:43:04,VALID,915.755,VALID,0,VALID,93.5088,VALID,0,VALID,19.0008,VALID,352,VALID,0.814844,
2010-11-24, 02:44:04,VALID,915.778,VALID,0,VALID,93.5012,VALID,0,VALID,19.0008,VALID,352,VALID,0.592969,
2010-11-24, 02:45:04,VALID,915.785,VALID,0,VALID,93.4478,VALID,0,VALID,19.0008,VALID,352,VALID,0.480859,
2010-11-24, 02:46:04,VALID,915.755,VALID,0,VALID,93.3335,VALID,0,VALID,19.0608,VALID,352,VALID,0.824609,
2010-11-24, 02:47:04,VALID,915.771,VALID,0,VALID,93.0285,VALID,0,VALID,19.0398,VALID,352,VALID,1.23789,
2010-11-24, 02:48:04,VALID,915.772,VALID,0,VALID,92.8608,VALID,0,VALID,19.1193,VALID,352,VALID,0.657812,
2010-11-24, 02:49:04,VALID,915.749,VALID,0,VALID,92.7617,VALID,0.107441,VALID,19.1193,VALID,352,VALID,0.416406,
2010-11-24, 02:50:04,VALID,915.75,VALID,0,VALID,92.8761,VALID,0,VALID,19.1193,VALID,352,VALID,0.507422,
2010-11-24, 02:51:04,VALID,915.765,VALID,0,VALID,93.0667,VALID,0,VALID,19.0998,VALID,352,VALID,0.00585938,
2010-11-24, 02:52:04,VALID,915.745,VALID,0,VALID,93.2344,VALID,0,VALID,19.0593,VALID,352,VALID,0,
2010-11-24, 02:53:04,VALID,915.759,VALID,0,VALID,93.2344,VALID,0,VALID,19.0398,VALID,352,VALID,0.350781,
2010-11-24, 02:54:04,VALID,915.735,VALID,0,VALID,92.9447,VALID,0,VALID,19.0998,VALID,352,VALID,0.921484,
2010-11-24, 02:55:04,VALID,915.717,VALID,0,VALID,92.655,VALID,0,VALID,19.1583,VALID,352,VALID,0.974609,
2010-11-24, 02:56:04,VALID,915.738,VALID,0,VALID,92.4263,VALID,0,VALID,19.1763,VALID,352,VALID,1.19609,
2010-11-24, 02:57:04,VALID,915.696,VALID,0,VALID,92.3729,VALID,0,VALID,19.1973,VALID,352,VALID,1.13828,
2010-11-24, 02:58:04,VALID,915.716,VALID,0,VALID,92.2281,VALID,0.107441,VALID,19.2168,VALID,353,VALID,1.12031,
2010-11-24, 02:59:04,VALID,915.675,VALID,0,VALID,92.0299,VALID,0,VALID,19.2348,VALID,353,VALID,0.960938,
2010-11-24, 03:00:04,VALID,915.628,VALID,0,VALID,91.8469,VALID,0,VALID,19.2753,VALID,352,VALID,1.29336,
2010-11-24, 03:01:04,VALID,915.668,VALID,0,VALID,91.7097,VALID,0,VALID,19.2948,VALID,353,VALID,1.40156,
2010-11-24, 03:02:04,VALID,915.664,VALID,0,VALID,91.7173,VALID,0,VALID,19.2948,VALID,353,VALID,1.27227,
2010-11-24, 03:03:04,VALID,915.684,VALID,0,VALID,91.8469,VALID,0,VALID,19.2543,VALID,353,VALID,1.11055,
2010-11-24, 03:04:04,VALID,915.697,VALID,0,VALID,91.7326,VALID,0.107441,VALID,19.2348,VALID,353,VALID,0.654297,
2010-11-24, 03:05:04,VALID,915.733,VALID,0,VALID,91.7935,VALID,0,VALID,19.2363,VALID,353,VALID,0.395312,
2010-11-24, 03:06:04,VALID,915.734,VALID,0,VALID,92.3729,VALID,0,VALID,19.1373,VALID,353,VALID,0.680859,
2010-11-24, 03:07:04,VALID,915.736,VALID,0,VALID,92.6397,VALID,0,VALID,19.1388,VALID,353,VALID,0.285547,
2010-11-24, 03:08:04,VALID,915.707,VALID,0,VALID,92.7541,VALID,0,VALID,19.0983,VALID,353,VALID,0.0382813,
2010-11-24, 03:09:04,VALID,915.688,VALID,0,VALID,92.6779,VALID,0,VALID,19.1388,VALID,353,VALID,0.468359,
2010-11-24, 03:10:04,VALID,915.682,VALID,0,VALID,92.2738,VALID,0,VALID,19.1193,VALID,353,VALID,0.436719,
2010-11-24, 03:11:04,VALID,915.661,VALID,0,VALID,92.6702,VALID,0,VALID,19.0803,VALID,353,VALID,0.566016,
2010-11-24, 03:12:04,VALID,915.641,VALID,0,VALID,92.7846,VALID,0,VALID,19.0998,VALID,353,VALID,0,
2010-11-24, 03:13:04,VALID,915.643,VALID,0,VALID,92.5788,VALID,0,VALID,19.1193,VALID,353,VALID,0,
2010-11-24, 03:14:04,VALID,915.627,VALID,0,VALID,92.3119,VALID,0,VALID,19.1388,VALID,352,VALID,0,
2010-11-24, 03:15:04,VALID,915.615,VALID,0,VALID,92.1519,VALID,0,VALID,19.1178,VALID,353,VALID,0,
2010-11-24, 03:16:04,VALID,915.643,VALID,0,VALID,92.2205,VALID,0,VALID,19.1388,VALID,353,VALID,0,
2010-11-24, 03:17:04,VALID,915.598,VALID,0,VALID,92.5102,VALID,0,VALID,19.0983,VALID,353,VALID,0,
2010-11-24, 03:18:04,VALID,915.573,VALID,0,VALID,92.6093,VALID,0.107441,VALID,19.0788,VALID,352,VALID,0,
2010-11-24, 03:19:04,VALID,915.544,VALID,0,VALID,92.6931,VALID,0.107441,VALID,19.0398,VALID,352,VALID,0,
2010-11-24, 03:20:04,VALID,915.568,VALID,0,VALID,92.8913,VALID,0,VALID,19.0398,VALID,353,VALID,0,
2010-11-24, 03:21:04,VALID,915.535,VALID,0,VALID,92.5406,VALID,0,VALID,19.0218,VALID,353,VALID,0,
2010-11-24, 03:22:04,VALID,915.551,VALID,0,VALID,92.9447,VALID,0,VALID,18.9424,VALID,352,VALID,0,
2010-11-24, 03:23:04,VALID,915.529,VALID,0,VALID,93.2191,VALID,0,VALID,18.9438,VALID,352,VALID,0,
2010-11-24, 03:24:04,VALID,915.551,VALID,0,VALID,93.0514,VALID,0,VALID,18.9633,VALID,353,VALID,0,
2010-11-24, 03:25:04,VALID,915.537,VALID,0,VALID,92.7922,VALID,0,VALID,18.9633,VALID,352,VALID,0,
2010-11-24, 03:26:04,VALID,915.554,VALID,0,VALID,93.0209,VALID,0,VALID,18.9438,VALID,353,VALID,0,
2010-11-24, 03:27:04,VALID,915.573,VALID,0,VALID,92.8685,VALID,0,VALID,18.8853,VALID,353,VALID,0,
2010-11-24, 03:28:04,VALID,915.559,VALID,0,VALID,92.8151,VALID,0,VALID,18.8073,VALID,352,VALID,0,
2010-11-24, 03:29:04,VALID,915.556,VALID,0,VALID,93.1886,VALID,0,VALID,18.7098,VALID,353,VALID,0,
2010-11-24, 03:30:04,VALID,915.545,VALID,0,VALID,94.0577,VALID,0,VALID,18.6918,VALID,353,VALID,0,
2010-11-24, 03:31:04,VALID,915.493,VALID,0,VALID,94.3779,VALID,0,VALID,18.7293,VALID,353,VALID,0,
2010-11-24, 03:32:04,VALID,915.498,VALID,0,VALID,94.2102,VALID,0,VALID,18.7488,VALID,353,VALID,0,
2010-11-24, 03:33:04,VALID,915.495,VALID,0,VALID,94.0577,VALID,0,VALID,18.7669,VALID,353,VALID,0,
2010-11-24, 03:34:04,VALID,915.495,VALID,0,VALID,93.951,VALID,0,VALID,18.8268,VALID,353,VALID,0,
2010-11-24, 03:35:04,VALID,915.48,VALID,0,VALID,93.89,VALID,0,VALID,18.8463,VALID,353,VALID,0,
2010-11-24, 03:36:04,VALID,915.477,VALID,0,VALID,93.768,VALID,0,VALID,18.8853,VALID,353,VALID,0,
2010-11-24, 03:37:04,VALID,915.451,VALID,0,VALID,93.7147,VALID,0,VALID,18.8853,VALID,353,VALID,0,
2010-11-24, 03:38:04,VALID,915.437,VALID,0,VALID,93.7604,VALID,0,VALID,18.8463,VALID,353,VALID,0,
2010-11-24, 03:39:04,VALID,915.426,VALID,0,VALID,93.8747,VALID,0,VALID,18.7683,VALID,353,VALID,0,
2010-11-24, 03:40:04,VALID,915.412,VALID,0,VALID,94.1339,VALID,0,VALID,18.7098,VALID,353,VALID,0,
2010-11-24, 03:41:04,VALID,915.413,VALID,0,VALID,94.3398,VALID,0,VALID,18.6319,VALID,353,VALID,0.923047,
2010-11-24, 03:42:04,VALID,915.393,VALID,0,VALID,94.6142,VALID,0,VALID,18.5929,VALID,353,VALID,0.575781,
2010-11-24, 03:43:04,VALID,915.386,VALID,0,VALID,94.8887,VALID,0,VALID,18.5344,VALID,353,VALID,0.282031,
2010-11-24, 03:44:04,VALID,915.388,VALID,0,VALID,95.0792,VALID,0,VALID,18.4954,VALID,353,VALID,0,
2010-11-24, 03:45:04,VALID,915.393,VALID,0,VALID,95.2165,VALID,0,VALID,18.4759,VALID,353,VALID,0,
2010-11-24, 03:46:04,VALID,915.408,VALID,0,VALID,95.3766,VALID,0,VALID,18.4369,VALID,353,VALID,0,
2010-11-24, 03:47:04,VALID,915.387,VALID,0,VALID,95.5595,VALID,0,VALID,18.4564,VALID,353,VALID,0,
2010-11-24, 03:48:04,VALID,915.376,VALID,0,VALID,95.3994,VALID,0,VALID,18.3784,VALID,353,VALID,0,
2010-11-24, 03:49:04,VALID,915.356,VALID,0,VALID,95.59,VALID,0,VALID,18.377,VALID,353,VALID,0,